[[{"header":{"parameterUnit":"m.s-1","parameterCategory":1,"la1":30.2991,"la2":30.254,"lo1":-89.0895,"lo2":-89.0444,"dy":0.0017,"dx":0.0017,"nx":28,"ny":28,"refTime":"2024-12-15T03:00:00:Z","depth":0,"parameterNumber":2,"parameterNumberName":"U-component_of_WINDS"},"data":[0,0,0,0,0,0,0,0,0,0,0,0,0,0,0,0,0,0,0,0,0,0,0,0,0,0,0,0,0,0,0,0,0,0,0,0,0,0,0,0,0,0,0,0,0,0,0,0,0,0,0,0,0,0,0,0,0,0,-3.1479,-3.1478,0,-3.1458,-3.1458,-3.1458,-3.1341,-3.1338,-3.1335,-3.1333,-3.1315,-3.1317,-3.1319,0,0,0,0,0,0,0,0,0,0,0,0,0,-3.142,-3.1422,-3.1479,-3.1478,-3.1478,-3.1458,-3.1458,-3.1458,-3.1342,-3.1338,-3.1335,-3.1331,-3.1314,-3.1317,-3.132,0,0,0,0,0,0,0,0,0,0,0,0,0,-3.1427,-3.1422,-3.1479,-3.1418,-3.1412,-3.1458,-3.1458,-3.1458,-3.1342,-3.1338,-3.1334,-3.133,-3.1314,-3.1317,-3.132,-3.1424,0,0,-3.133,-3.1331,0,0,0,0,0,0,0,0,-3.1427,-3.143,-3.1427,-3.1422,-3.1416,-3.1398,-3.1431,-3.1447,-3.1343,-3.1369,-3.1333,-3.1328,-3.1346,-3.1347,-3.1352,-3.1423,-3.1423,-3.133,-3.1332,-3.1333,-3.1334,0,0,0,0,0,0,0,-3.1427,-3.143,-3.1471,-3.1427,-3.142,-3.1392,-3.1389,-3.1433,-3.1382,-3.1366,-3.1358,-3.1357,-3.1342,-3.1349,-3.1351,-3.1422,-3.133,-3.1333,-3.1335,-3.1336,-3.158,-3.1584,0,0,0,0,0,0,-3.1434,-3.143,-3.1471,-3.147,-3.1411,-3.1397,-3.1393,-3.1408,-3.1381,-3.1372,-3.136,-3.1351,-3.1346,-3.1347,-3.135,-3.1471,-3.1333,-3.1336,-3.1338,-3.1575,-3.1581,-3.1586,0,0,0,0,0,0,-3.1433,-3.1439,-3.1472,-3.1448,-3.145,-3.1402,-3.142,-3.141,-3.1416,-3.1376,-3.1367,-3.1377,-3.1343,-3.1345,-3.1407,-3.1469,-3.1338,-3.1341,-3.157,-3.1577,-3.1583,-3.1715,0,0,0,0,0,0,-3.1432,-3.1439,-3.1478,-3.1449,-3.1451,-3.1529,-3.1424,-3.1412,-3.1422,-3.141,-3.1389,-3.1382,-3.1339,-3.1403,-3.141,-3.1471,-3.1343,-3.1564,-3.1573,-3.1581,-3.1705,-3.1725,-3.1743,0,0,0,0,0,-3.1431,-3.1516,-3.148,-3.1486,-3.1498,-3.1533,-3.1534,-3.1483,-3.1427,-3.1466,-3.144,-3.1382,-3.1461,-3.141,-3.1417,-3.148,-3.156,-3.157,-3.158,-3.1696,-3.1721,-3.1742,0,0,0,0,0,0,-3.1554,-3.1511,-3.1471,-3.155,-3.1546,-3.1513,-3.156,-3.1511,-3.1523,-3.1511,-3.1448,-3.1445,-3.1516,-3.1504,-3.1448,-3.158,-3.15,-3.1513,-3.1586,-3.1609,-3.1628,-3.163,-3.1346,0,0,0,0,0,-3.1591,-3.1621,-3.1582,-3.1655,-3.1655,-3.1609,-3.1621,-3.1582,-3.1576,-3.1574,-3.1552,-3.1549,-3.1573,-3.159,-3.161,-3.1702,-3.1696,-3.1749,-3.1768,-3.1784,-3.1796,-3.1845,-3.1868,-3.1619,-3.1619,-3.1619,0,0,-3.1666,-3.1647,-3.167,-3.168,-3.1672,-3.1706,-3.1608,-3.1648,-3.1673,-3.158,-3.1637,-3.1621,-3.1613,-3.1691,-3.1724,-3.1683,-3.1863,-3.1797,-3.181,-3.1813,-3.1858,-3.1881,-3.1902,-3.1626,-3.1625,-3.1624,0,0,-3.1822,-3.1809,-3.187,-3.1864,-3.1852,-3.1821,-3.1836,-3.181,-3.1796,-3.1852,-3.1783,-3.1812,-3.1854,-3.1852,-3.1856,-3.2011,-3.1959,-3.2019,-3.212,-3.2168,-3.2188,-3.2205,-3.2262,-3.2283,-3.2031,-3.2031,-3.2032,0,-3.1918,-3.1965,-3.1907,-3.1952,-3.1959,-3.1875,-3.1937,-3.1934,-3.1931,-3.1938,-3.1891,-3.1943,-3.1932,-3.2008,-3.2046,-3.2052,-3.2068,-3.2022,-3.219,-3.2206,-3.2221,-3.2275,-3.2297,-3.2039,-3.2038,-3.2037,-3.2037,0,-3.2085,-3.2119,-3.2169,-3.2167,-3.2179,-3.2232,-3.2183,-3.2203,-3.2163,-3.2137,-3.2195,-3.2179,-3.2194,-3.2209,-3.217,-3.2281,-3.2256,-3.2201,-3.2119,-3.2254,-3.2303,-3.2323,-3.205,-3.2047,-3.2045,-3.2043,0,0,-3.2319,-3.2283,-3.2303,-3.2302,-3.2283,-3.2309,-3.2359,-3.2373,-3.2392,-3.2392,-3.2433,-3.2471,-3.242,-3.2425,-3.2385,-3.2428,-3.2553,-3.2367,-3.2366,-3.2404,-3.2676,-3.2719,-3.2743,-3.2518,-3.2521,-3.2524,-3.2677,0,-3.2469,-3.2551,-3.25,-3.259,-3.2622,-3.2543,-3.2586,-3.2581,-3.2557,-3.2582,-3.2556,-3.2584,-3.2514,-3.2516,-3.2555,-3.253,-3.2607,-3.2518,-3.2557,-3.2559,-3.2563,-3.2769,-3.2814,-3.2959,-3.2696,-3.2699,-3.2701,0,-3.2655,-3.2663,-3.2757,-3.2733,-3.2744,-3.2784,-3.2794,-3.2817,-3.2809,-3.2789,-3.2795,-3.2745,-3.2793,-3.2712,-3.2778,-3.2719,-3.2731,-3.2722,-3.2726,-3.2729,-3.264,-3.2779,-3.3004,-3.3026,-3.2731,-3.2728,-3.2726,0,-3.2819,-3.2853,-3.2913,-3.2914,-3.2888,-3.2918,-3.2908,-3.2896,-3.2908,-3.2916,-3.2924,-3.2938,-3.2946,-3.2959,-3.2915,-3.2859,-3.2988,-3.2902,-3.2974,-3.2975,-3.3006,-3.3005,-3.3238,-3.3012,-3.3011,-3.3011,-3.301,0,-3.2993,-3.3054,-3.2987,-3.3024,-3.309,-3.3032,-3.3099,-3.3081,-3.3071,-3.3104,-3.3037,-3.307,-3.3008,-3.3035,-3.3001,-3.3062,-3.3066,-3.3052,-3.3043,-3.3059,-3.3061,-3.3068,-3.3058,-3.3017,-3.3015,-3.3014,-3.3013,0,-3.3188,-3.3145,-3.3206,-3.3175,-3.3169,-3.322,-3.3194,-3.3228,-3.32,-3.3243,-3.325,-3.3206,-3.3235,-3.3191,-3.3215,-3.3192,-3.3277,-3.3251,-3.328,-3.3273,-3.3348,-3.3342,-3.3594,-3.3625,-3.3378,-3.338,-3.3382,0,-3.3303,-3.3347,-3.3322,-3.3339,-3.3333,-3.3362,-3.3373,-3.3317,-3.3333,-3.3327,-3.3363,-3.3385,-3.34,-3.345,-3.3421,-3.3439,-3.3415,-3.3502,-3.3417,-3.3433,-3.3418,-3.3417,-3.3422,-3.352,-3.3523,-3.3525,-3.3527,0,-3.3512,-3.3488,-3.3507,-3.352,-3.3535,-3.3543,-3.3545,-3.3563,-3.3504,-3.3525,-3.3553,-3.3565,-3.3589,-3.3613,-3.3624,-3.3614,-3.3563,-3.3554,-3.3572,-3.359,-3.3606,-3.36,-3.3329,-3.3549,-3.3547,-3.3545,-3.3544,-3.3543,-3.3671,-3.3707,-3.3695,-3.3719,-3.3715,-3.3718,-3.3749,-3.3725,-3.3747,-3.3762,-3.3727,-3.3764,-3.3756,-3.3765,-3.3762,-3.379,-3.3752,-3.3778,-3.3785,-3.3792,-3.3805,-3.36,-3.3792,-3.3791,-3.379,-3.379,-3.3789,0,-3.3877,-3.3866,-3.3888,-3.3893,-3.3913,-3.386,-3.386,-3.388,-3.3913,-3.3909,-3.3925,-3.3958,-3.3981,-3.3954,-3.3972,-3.4001,-3.3977,-3.4008,-3.4006,-3.4005,-3.3837,-3.382,-3.4026,-3.4026,-3.4026,-3.4026,-3.4026,-3.4026,-3.3988,-3.4047,-3.4023,-3.408,-3.4067,-3.4102,-3.4107,-3.4111,-3.4107,-3.4147,-3.4166,-3.4147,-3.4135,-3.4151,-3.4171,-3.4162,-3.4173,-3.4212,-3.4196,-3.404,-3.4017,-3.3994,-3.3979,-3.4215,-3.4215,-3.4361,-3.4363,-3.4364]},{"header":{"parameterUnit":"m.s-1","parameterCategory":1,"la1":30.2991,"la2":30.254,"lo1":-89.0895,"lo2":-89.0444,"dy":0.0017,"dx":0.0017,"nx":28,"ny":28,"refTime":"2024-12-15T03:00:00:Z","depth":0,"parameterNumber":3,"parameterNumberName":"V-component_of_WINDS"},"data":[0,0,0,0,0,0,0,0,0,0,0,0,0,0,0,0,0,0,0,0,0,0,0,0,0,0,0,0,0,0,0,0,0,0,0,0,0,0,0,0,0,0,0,0,0,0,0,0,0,0,0,0,0,0,0,0,0,0,-1.3736,-1.3736,0,-1.3766,-1.3766,-1.3767,-1.3751,-1.375,-1.3749,-1.3749,-1.3777,-1.3779,-1.378,0,0,0,0,0,0,0,0,0,0,0,0,0,-1.3661,-1.3663,-1.3736,-1.3736,-1.3736,-1.3766,-1.3766,-1.3767,-1.3751,-1.375,-1.3749,-1.3748,-1.3777,-1.3778,-1.378,0,0,0,0,0,0,0,0,0,0,0,0,0,-1.3693,-1.3663,-1.3736,-1.3732,-1.3732,-1.3766,-1.3766,-1.3767,-1.3751,-1.375,-1.3749,-1.3748,-1.3776,-1.3778,-1.378,-1.3818,0,0,-1.3787,-1.3788,0,0,0,0,0,0,0,0,-1.3691,-1.3695,-1.3732,-1.3733,-1.3733,-1.3754,-1.375,-1.3784,-1.3752,-1.3744,-1.3749,-1.3747,-1.377,-1.3773,-1.3781,-1.3819,-1.3821,-1.3788,-1.3789,-1.379,-1.3791,0,0,0,0,0,0,0,-1.3689,-1.3694,-1.3747,-1.3733,-1.3733,-1.3728,-1.3731,-1.3757,-1.3763,-1.3745,-1.3744,-1.3748,-1.377,-1.3779,-1.3782,-1.3821,-1.3787,-1.3789,-1.3791,-1.3792,-1.3891,-1.3892,0,0,0,0,0,0,-1.3687,-1.3692,-1.3747,-1.3748,-1.3709,-1.3731,-1.3734,-1.3748,-1.3763,-1.3764,-1.3749,-1.3747,-1.3776,-1.3779,-1.3782,-1.3827,-1.379,-1.3792,-1.3793,-1.389,-1.3891,-1.3893,0,0,0,0,0,0,-1.3686,-1.3692,-1.3745,-1.372,-1.3727,-1.3733,-1.3749,-1.3749,-1.3758,-1.3766,-1.3767,-1.3757,-1.3775,-1.3779,-1.3809,-1.3828,-1.3793,-1.3795,-1.3888,-1.389,-1.3892,-1.3917,0,0,0,0,0,0,-1.3684,-1.3692,-1.3707,-1.3721,-1.3728,-1.3773,-1.375,-1.3751,-1.3762,-1.376,-1.3774,-1.3775,-1.3774,-1.3806,-1.3812,-1.383,-1.3797,-1.3887,-1.3889,-1.3891,-1.3915,-1.392,-1.3924,0,0,0,0,0,-1.3681,-1.3712,-1.3708,-1.3714,-1.3747,-1.3774,-1.3778,-1.3777,-1.3764,-1.3779,-1.3784,-1.3774,-1.3825,-1.3809,-1.3815,-1.3835,-1.3885,-1.3888,-1.3891,-1.3913,-1.3919,-1.3924,0,0,0,0,0,0,-1.37,-1.3714,-1.3709,-1.3746,-1.3759,-1.3771,-1.379,-1.3784,-1.38,-1.3797,-1.3795,-1.3798,-1.3829,-1.3835,-1.3817,-1.3872,-1.3853,-1.3857,-1.3867,-1.3873,-1.3878,-1.3876,-1.3799,0,0,0,0,0,-1.3709,-1.373,-1.3741,-1.3772,-1.3779,-1.3783,-1.3795,-1.3793,-1.3806,-1.3811,-1.3818,-1.3831,-1.3849,-1.3861,-1.3879,-1.3915,-1.3918,-1.3932,-1.3936,-1.394,-1.3944,-1.3963,-1.3969,-1.3902,-1.3902,-1.3902,0,0,-1.3726,-1.3737,-1.375,-1.3776,-1.3786,-1.3807,-1.3788,-1.3812,-1.3827,-1.3815,-1.3844,-1.3849,-1.3862,-1.3896,-1.3911,-1.3902,-1.3963,-1.3944,-1.3947,-1.3949,-1.3967,-1.3973,-1.3979,-1.3904,-1.3904,-1.3904,0,0,-1.377,-1.378,-1.3807,-1.3817,-1.3833,-1.3835,-1.3842,-1.3855,-1.3858,-1.3888,-1.3879,-1.3896,-1.3928,-1.3938,-1.3947,-1.3993,-1.3985,-1.3999,-1.4023,-1.4042,-1.4047,-1.4052,-1.4068,-1.4074,-1.4003,-1.4003,-1.4003,0,-1.379,-1.3822,-1.3822,-1.3846,-1.3857,-1.3848,-1.3874,-1.3884,-1.3904,-1.3911,-1.3901,-1.3941,-1.3949,-1.3984,-1.3995,-1.4003,-1.401,-1.3998,-1.4047,-1.4051,-1.4056,-1.4071,-1.4077,-1.4004,-1.4004,-1.4004,-1.4004,0,-1.3846,-1.3869,-1.3889,-1.3909,-1.3922,-1.3948,-1.395,-1.3963,-1.396,-1.3963,-1.3993,-1.4002,-1.4021,-1.4029,-1.4026,-1.4064,-1.4058,-1.4047,-1.4028,-1.4064,-1.4078,-1.4084,-1.4006,-1.4006,-1.4005,-1.4005,0,0,-1.3903,-1.3922,-1.3929,-1.3938,-1.3954,-1.3971,-1.3995,-1.4014,-1.4026,-1.4039,-1.4059,-1.4086,-1.4077,-1.4087,-1.4085,-1.4101,-1.4136,-1.4088,-1.4088,-1.4097,-1.4178,-1.4186,-1.4193,-1.4131,-1.4132,-1.4133,-1.4177,0,-1.3947,-1.3991,-1.3991,-1.4031,-1.4051,-1.4042,-1.4063,-1.4074,-1.4078,-1.4095,-1.4098,-1.4117,-1.4103,-1.4109,-1.4125,-1.4129,-1.4153,-1.4126,-1.4149,-1.415,-1.4146,-1.42,-1.4209,-1.425,-1.4182,-1.4183,-1.4184,0,-1.4005,-1.4021,-1.4064,-1.4076,-1.4084,-1.4103,-1.4121,-1.4137,-1.415,-1.4151,-1.4162,-1.4157,-1.4181,-1.4161,-1.4193,-1.4175,-1.4184,-1.4187,-1.4189,-1.4191,-1.4169,-1.4204,-1.4263,-1.4269,-1.4193,-1.4192,-1.4191,0,-1.4042,-1.4074,-1.4103,-1.4111,-1.4126,-1.414,-1.4147,-1.4158,-1.4169,-1.4184,-1.4191,-1.4208,-1.4217,-1.423,-1.4229,-1.4215,-1.4262,-1.4242,-1.4263,-1.4263,-1.4273,-1.4272,-1.4334,-1.4279,-1.4279,-1.4279,-1.4279,0,-1.4091,-1.4117,-1.412,-1.4138,-1.4167,-1.4166,-1.4194,-1.4199,-1.4209,-1.4227,-1.4219,-1.4236,-1.4235,-1.4251,-1.4251,-1.4277,-1.4281,-1.4283,-1.4282,-1.4283,-1.4283,-1.4289,-1.4287,-1.4281,-1.428,-1.428,-1.428,0,-1.4137,-1.414,-1.4172,-1.4184,-1.4187,-1.4208,-1.4217,-1.4234,-1.4236,-1.4259,-1.4265,-1.4268,-1.4288,-1.4288,-1.431,-1.431,-1.4342,-1.4338,-1.4338,-1.4338,-1.4358,-1.4356,-1.4426,-1.4435,-1.4374,-1.4375,-1.4376,0,-1.4169,-1.4189,-1.4203,-1.4215,-1.4223,-1.4242,-1.4254,-1.4253,-1.4265,-1.428,-1.4295,-1.4313,-1.4328,-1.4359,-1.4364,-1.438,-1.4377,-1.44,-1.4379,-1.438,-1.4377,-1.4376,-1.4377,-1.4404,-1.4405,-1.4405,-1.4406,0,-1.4224,-1.4225,-1.4242,-1.426,-1.4275,-1.4289,-1.4302,-1.4312,-1.4312,-1.4326,-1.4346,-1.4358,-1.438,-1.4399,-1.4415,-1.442,-1.4413,-1.4412,-1.4418,-1.442,-1.4419,-1.4419,-1.4349,-1.4411,-1.441,-1.441,-1.441,-1.441,-1.4264,-1.4281,-1.4294,-1.4313,-1.4323,-1.4335,-1.4351,-1.4356,-1.4373,-1.4392,-1.439,-1.4412,-1.4422,-1.4443,-1.445,-1.4467,-1.4459,-1.4467,-1.4469,-1.4471,-1.4473,-1.4416,-1.447,-1.447,-1.447,-1.4469,-1.4469,0,-1.4319,-1.4326,-1.4344,-1.4363,-1.4378,-1.4371,-1.4384,-1.4397,-1.4417,-1.4428,-1.4443,-1.4466,-1.4483,-1.4489,-1.4506,-1.4518,-1.4515,-1.4522,-1.4521,-1.4523,-1.448,-1.4473,-1.4524,-1.4524,-1.4524,-1.4524,-1.4524,-1.4524,-1.4349,-1.4378,-1.4379,-1.4412,-1.4419,-1.4441,-1.445,-1.4461,-1.4469,-1.4495,-1.451,-1.4514,-1.4522,-1.454,-1.4555,-1.4556,-1.4563,-1.4571,-1.4571,-1.4531,-1.4526,-1.452,-1.4514,-1.4573,-1.4573,-1.4612,-1.4613,-1.4613]}]]